Sigfox identifier Datetime Temperature Humidity SNR
002EEFB8 2019-04-23 14:48:27 21.2 28 19.3
002EEFB8 2019-04-23 13:40:04 21.3 28 18.7
002EEFB8 2019-04-23 13:05:54 21.2 28 18.6
002EEFB8 2019-04-23 12:31:48 21.1 28 18.7
002EEFB8 2019-04-23 11:57:35 21 28 18.8
002EEFB8 2019-04-23 11:23:23 21 27 18.9
002EEFB8 2019-04-23 10:49:13 21 27 18.9
002EEFB8 2019-04-23 10:15:04 20.9 27 18.9
002EEFB8 2019-04-23 09:40:56 20.8 27 18.9
002EEFB8 2019-04-23 09:06:47 20.8 27 16.2
002EEFB8 2019-04-23 08:32:37 20.8 27 16.3
002EEFB8 2019-04-23 07:58:26 20.8 27 16.8
002EEFB8 2019-04-23 07:24:20 20.8 27 17
002EEFB8 2019-04-23 06:50:06 20.8 27 16.6
002EEFB8 2019-04-23 06:15:55 20.8 27 16.7
002EEFB8 2019-04-23 05:41:46 20.8 27 16.7
002EEFB8 2019-04-23 05:07:36 20.8 27 16.7
002EEFB8 2019-04-23 04:33:25 20.8 27 16.8
002EEFB8 2019-04-23 03:59:16 20.8 27 16.7
002EEFB8 2019-04-23 03:25:05 20.8 27 16.7
002EEFB8 2019-04-23 02:50:54 20.8 27 16.7
002EEFB8 2019-04-23 02:16:44 20.8 27 16.6
002EEFB8 2019-04-23 01:42:34 20.8 27 16.4
002EEFB8 2019-04-23 01:08:24 20.8 27 16.6
002EEFB8 2019-04-23 00:34:13 20.8 27 16.7
002EEFB8 2019-04-23 00:00:02 20.8 27 16.8
002EEFB8 2019-04-22 23:25:51 20.8 27 16.9
002EEFB8 2019-04-22 22:51:40 20.8 27 16.7
002EEFB8 2019-04-22 22:17:30 20.8 27 16.6
002EEFB8 2019-04-22 21:43:19 20.9 27 16.7
002EEFB8 2019-04-22 21:09:09 20.8 27 16.9
002EEFB8 2019-04-22 20:34:58 20.8 27 16.9
002EEFB8 2019-04-22 20:00:48 20.8 27 16.7
002EEFB8 2019-04-22 19:26:38 20.8 27 16.6
002EEFB8 2019-04-22 18:52:29 20.8 27 16.1
002EEFB8 2019-04-22 18:18:17 20.8 27 16.3
002EEFB8 2019-04-22 17:44:07 20.8 27 15.9
002EEFB8 2019-04-22 17:09:56 20.9 27 15.8
002EEFB8 2019-04-22 16:35:45 20.8 27 15.9
002EEFB8 2019-04-22 16:01:36 20.8 27 15.8
002EEFB8 2019-04-22 15:27:24 20.8 27 15.9
002EEFB8 2019-04-22 14:53:15 20.8 26 16
002EEFB8 2019-04-22 14:19:05 20.8 26 15.9
002EEFB8 2019-04-22 13:44:56 20.8 26 16.1
002EEFB8 2019-04-22 13:10:46 20.8 26 16.4
002EEFB8 2019-04-22 12:36:36 20.8 26 16.3
002EEFB8 2019-04-22 12:02:27 20.8 26 16.3
002EEFB8 2019-04-22 11:28:17 20.8 26 16.3
002EEFB8 2019-04-22 10:54:07 20.9 26 16.4
002EEFB8 2019-04-22 10:19:57 20.9 26 16.4
002EEFB8 2019-04-22 09:45:48 20.9 26 16.6
002EEFB8 2019-04-22 09:11:38 20.8 26 16.6
002EEFB8 2019-04-22 08:37:27 20.8 26 16.6
002EEFB8 2019-04-22 08:03:17 20.9 26 16.6
002EEFB8 2019-04-22 07:29:07 20.9 26 16.6
002EEFB8 2019-04-22 06:54:57 20.9 26 16.5
002EEFB8 2019-04-22 06:20:47 21 26 16.5
002EEFB8 2019-04-22 05:46:37 21 26 16.4
002EEFB8 2019-04-22 05:12:28 21 26 16.5
002EEFB8 2019-04-22 04:38:19 21 26 16.5
002EEFB8 2019-04-22 04:04:10 21 26 16.2
002EEFB8 2019-04-22 03:30:00 21 26 16.2
002EEFB8 2019-04-22 02:55:51 21 26 16.1
002EEFB8 2019-04-22 02:21:41 21 26 15.9
002EEFB8 2019-04-22 01:47:30 21 26 15.7
002EEFB8 2019-04-22 01:13:20 21 26 16.2
002EEFB8 2019-04-22 00:39:09 21 26 16.1
002EEFB8 2019-04-22 00:04:58 21 26 16.2
002EEFB8 2019-04-21 23:30:47 21.1 26 16
002EEFB8 2019-04-21 22:56:37 21 26 15.6
002EEFB8 2019-04-21 22:22:26 21 26 15.6
002EEFB8 2019-04-21 21:48:14 21 26 15.6
002EEFB8 2019-04-21 21:14:04 21 26 15.7
002EEFB8 2019-04-21 20:39:52 21 26 18.6
002EEFB8 2019-04-21 20:05:42 21 26 18.7
002EEFB8 2019-04-21 19:31:31 21 26 18.5
002EEFB8 2019-04-21 18:57:21 21 26 18.6
002EEFB8 2019-04-21 18:23:13 21 26 18.6
002EEFB8 2019-04-21 17:49:01 21 26 18.5
002EEFB8 2019-04-21 17:14:50 20.9 26 18.6
002EEFB8 2019-04-21 16:40:42 20.8 26 18.5
002EEFB8 2019-04-21 16:06:30 20.8 26 18.5
002EEFB8 2019-04-21 15:32:21 20.8 26 18.5
002EEFB8 2019-04-21 14:58:10 20.8 26 18.4
002EEFB8 2019-04-21 14:24:02 20.8 26 18.4
002EEFB8 2019-04-21 13:49:52 20.8 26 18.3
002EEFB8 2019-04-21 13:15:43 20.8 26 18.4
002EEFB8 2019-04-21 12:41:34 20.8 26 18.4
002EEFB8 2019-04-21 12:07:24 20.8 26 18.4
002EEFB8 2019-04-21 11:33:15 20.8 25 18.4
002EEFB8 2019-04-21 10:59:05 20.8 25 18.1
002EEFB8 2019-04-21 10:24:55 20.8 25 18.1
002EEFB8 2019-04-21 09:50:45 20.8 25 18.1
002EEFB8 2019-04-21 09:16:35 20.8 25 18.1
002EEFB8 2019-04-21 08:42:26 20.8 25 18.1
002EEFB8 2019-04-21 08:08:17 20.8 25 18.1
002EEFB8 2019-04-21 07:34:06 20.8 25 18.3
002EEFB8 2019-04-21 06:59:57 20.8 25 18.2
002EEFB8 2019-04-21 06:25:48 20.8 25 14.4
002EEFB8 2019-04-21 05:51:37 20.8 25 13.9
002EEFB8 2019-04-21 05:17:27 20.8 25 14
002EEFB8 2019-04-21 04:43:17 20.8 25 13.8
002EEFB8 2019-04-21 04:09:07 20.9 25 13.7
002EEFB8 2019-04-21 03:34:57 20.8 25 13.7
002EEFB8 2019-04-21 03:00:46 20.9 25 13.4
002EEFB8 2019-04-21 02:26:37 20.9 25 13.4
002EEFB8 2019-04-21 01:52:27 20.8 25 13.2
002EEFB8 2019-04-21 01:18:16 20.9 25 13.1
002EEFB8 2019-04-21 00:44:08 20.9 25 13.1
002EEFB8 2019-04-21 00:09:57 20.9 25 13
002EEFB8 2019-04-20 23:35:46 20.9 25 13.1
002EEFB8 2019-04-20 23:01:36 20.9 25 12.9
002EEFB8 2019-04-20 22:27:27 20.9 25 12.9
002EEFB8 2019-04-20 21:53:18 20.9 25 12.9
002EEFB8 2019-04-20 21:19:08 20.8 25 12.9
002EEFB8 2019-04-20 20:45:00 20.9 25 12.7
002EEFB8 2019-04-20 20:10:49 20.9 25 12.5
002EEFB8 2019-04-20 19:36:39 20.9 25 12.7
002EEFB8 2019-04-20 19:02:28 20.8 25 13
002EEFB8 2019-04-20 18:28:17 20.8 25 13
002EEFB8 2019-04-20 17:54:07 20.9 25 11.8
002EEFB8 2019-04-20 17:19:58 20.9 25 12
002EEFB8 2019-04-20 16:45:51 20.9 25 12
002EEFB8 2019-04-20 16:11:37 20.9 25 11.8
002EEFB8 2019-04-20 15:37:28 20.8 25 11.5
002EEFB8 2019-04-20 15:03:18 20.8 25 10.9
002EEFB8 2019-04-20 13:54:58 20.8 24 11
002EEFB8 2019-04-20 13:20:48 20.8 24 11
002EEFB8 2019-04-20 12:46:42 20.8 24 11
002EEFB8 2019-04-20 12:12:29 20.8 24 10.8
002EEFB8 2019-04-20 11:38:18 20.8 24 11
002EEFB8 2019-04-20 11:04:10 20.7 24 11.1
002EEFB8 2019-04-20 10:29:59 20.8 24 11.1
002EEFB8 2019-04-20 09:55:48 20.8 24 11.3
002EEFB8 2019-04-20 08:47:30 20.8 24 11.3
002EEFB8 2019-04-20 08:13:22 20.8 24 11.3
002EEFB8 2019-04-20 07:05:04 20.6 24 11.7
002EEFB8 2019-04-20 05:56:43 20.7 24 11.6
002EEFB8 2019-04-20 05:22:35 20.6 24 11.4
002EEFB8 2019-04-20 04:48:28 20.6 24 11.3
002EEFB8 2019-04-20 04:14:15 20.6 24 11.3
002EEFB8 2019-04-20 03:40:09 20.6 24 11.1
002EEFB8 2019-04-20 02:31:46 20.6 24 10.9
002EEFB8 2019-04-20 01:57:38 20.6 24 10.4
002EEFB8 2019-04-20 01:23:30 20.6 24 10.4
002EEFB8 2019-04-20 00:49:17 20.6 24 10.3
002EEFB8 2019-04-20 00:15:08 20.6 24 10.1
002EEFB8 2019-04-19 23:40:59 20.6 24 10
002EEFB8 2019-04-19 23:06:49 20.6 25 10
002EEFB8 2019-04-19 22:32:39 20.6 25 10.2
002EEFB8 2019-04-19 21:58:31 20.6 25 10.2
002EEFB8 2019-04-19 21:24:22 20.6 25 10.2
002EEFB8 2019-04-19 20:50:14 20.6 25 10.1
002EEFB8 2019-04-19 20:16:01 20.6 25 10.1
002EEFB8 2019-04-19 19:41:57 20.6 25 10.3
002EEFB8 2019-04-19 19:07:43 20.6 25 10
002EEFB8 2019-04-19 18:33:36 20.6 25 9.8
002EEFB8 2019-04-19 17:59:25 20.6 25 10
002EEFB8 2019-04-19 17:25:16 20.6 25 9.6
002EEFB8 2019-04-19 16:51:08 20.6 25 9.6
002EEFB8 2019-04-19 16:17:03 20.6 25 9.7
002EEFB8 2019-04-19 15:42:52 20.6 25 9
002EEFB8 2019-04-19 15:08:41 20.6 25 9
002EEFB8 2019-04-19 14:34:31 20.6 26 9
002EEFB8 2019-04-19 14:00:22 20.6 26 9.5
002EEFB8 2019-04-19 13:26:16 20.6 26 9.5
002EEFB8 2019-04-19 12:52:03 20.7 26 16.9
002EEFB8 2019-04-19 12:17:53 20.8 26 16.8
002EEFB8 2019-04-19 11:43:43 20.8 26 16.8
002EEFB8 2019-04-19 10:35:22 20.8 26 16.8
002EEFB8 2019-04-19 10:01:11 20.8 26 16.9
002EEFB8 2019-04-19 09:27:04 20.8 26 16.9
002EEFB8 2019-04-19 08:18:41 20.8 27 16.9
002EEFB8 2019-04-19 07:44:31 20.8 27 16.9
002EEFB8 2019-04-19 07:10:21 20.9 27 16.9
002EEFB8 2019-04-19 06:36:10 20.9 27 16.9
002EEFB8 2019-04-19 06:02:03 20.9 27 16.9
002EEFB8 2019-04-19 05:27:50 20.9 27 17.1
002EEFB8 2019-04-19 04:53:41 20.8 27 17.1
002EEFB8 2019-04-19 04:19:31 20.9 27 17.1
002EEFB8 2019-04-19 03:45:25 21 27 17.1
002EEFB8 2019-04-19 03:11:12 21 27 19.6
002EEFB8 2019-04-19 02:37:04 21 27 21.2
002EEFB8 2019-04-19 02:02:55 21 27 21.7
002EEFB8 2019-04-19 01:28:43 21 27 22.2
002EEFB8 2019-04-19 00:54:32 21 27 22.6
002EEFB8 2019-04-19 00:20:20 21 27 23
002EEFB8 2019-04-18 23:46:10 21 27 23.3
002EEFB8 2019-04-18 23:11:59 21 27 23.4
002EEFB8 2019-04-18 22:37:49 21 28 23.5
002EEFB8 2019-04-18 22:03:39 21 28 23.9
002EEFB8 2019-04-18 21:29:28 21 28 23.4
002EEFB8 2019-04-18 20:55:18 21 28 23.5
002EEFB8 2019-04-18 20:21:09 21 28 23.7
002EEFB8 2019-04-18 19:46:59 21 28 24
002EEFB8 2019-04-18 19:12:51 21 28 24.2
002EEFB8 2019-04-18 18:38:40 21.1 28 24.6
002EEFB8 2019-04-18 18:04:32 21.2 28 24.8
002EEFB8 2019-04-18 17:30:18 21.2 28 24.9
002EEFB8 2019-04-18 16:56:06 21.2 28 25.1
002EEFB8 2019-04-18 16:21:55 21.3 28 25.3
002EEFB8 2019-04-18 15:47:45 21.3 28 25.4
002EEFB8 2019-04-18 15:13:34 21.3 28 25.5
002EEFB8 2019-04-18 14:39:25 21.4 28 25.7
002EEFB8 2019-04-18 14:05:15 21.5 28 25.8
002EEFB8 2019-04-18 13:31:05 21.5 28 26
002EEFB8 2019-04-18 12:56:55 21.7 28 25.8
002EEFB8 2019-04-18 12:22:45 21.9 27 25.5
002EEFB8 2019-04-18 11:48:34 22.1 21 25.5
002EEFB8 2019-04-18 11:14:23 22.1 21 25.8
002EEFB8 2019-04-18 10:40:13 22.1 22 25.8
002EEFB8 2019-04-18 10:06:03 21.9 22 25.8
002EEFB8 2019-04-18 09:31:54 21.9 21 25.8
002EEFB8 2019-04-18 08:57:43 21.9 21 25.9
002EEFB8 2019-04-18 08:23:33 21.9 21 25.9
002EEFB8 2019-04-18 07:49:23 21.9 21 25.8
002EEFB8 2019-04-18 07:15:13 21.9 21 25.8
002EEFB8 2019-04-18 06:41:03 21.9 21 25.8
002EEFB8 2019-04-18 06:06:51 21.9 22 25.7
002EEFB8 2019-04-18 05:32:41 21.9 22 25.7
002EEFB8 2019-04-18 04:58:29 21.9 22 25.7
002EEFB8 2019-04-18 04:24:18 22.1 22 25.7
002EEFB8 2019-04-18 03:50:06 22.1 22 25.6
002EEFB8 2019-04-18 03:15:54 22.1 22 25.6
002EEFB8 2019-04-18 02:41:41 22.1 22 25.5
002EEFB8 2019-04-18 02:07:29 22.1 22 25.8
002EEFB8 2019-04-18 01:33:19 22.1 22 25.8
002EEFB8 2019-04-18 00:59:07 22.1 22 25.8
002EEFB8 2019-04-18 00:24:56 22.2 22 25.8
002EEFB8 2019-04-17 23:50:45 22.3 22 25.7
002EEFB8 2019-04-17 23:16:35 22.3 22 25.7
002EEFB8 2019-04-17 22:42:24 22.3 22 25.6
002EEFB8 2019-04-17 22:08:14 22.3 22 25.5
002EEFB8 2019-04-17 21:34:03 22.4 22 25.4
002EEFB8 2019-04-17 20:59:52 22.5 22 25.1
002EEFB8 2019-04-17 20:25:40 22.5 22 25
002EEFB8 2019-04-17 19:51:28 22.5 22 24.9
002EEFB8 2019-04-17 19:17:17 22.5 22 24.9
002EEFB8 2019-04-17 18:43:06 22.6 22 24.9
002EEFB8 2019-04-17 18:08:56 22.7 21 24.9
002EEFB8 2019-04-17 17:34:45 22.7 21 25
002EEFB8 2019-04-17 17:00:34 22.7 21 25.2
002EEFB8 2019-04-17 16:26:23 22.7 22 25.3
002EEFB8 2019-04-17 15:52:13 22.7 22 25.3
002EEFB8 2019-04-17 15:18:03 22.5 23 25.2
002EEFB8 2019-04-17 14:43:52 22.5 23 25.1
002EEFB8 2019-04-17 14:09:41 22.5 23 25.5
002EEFB8 2019-04-17 13:35:31 22.3 23 25.5
002EEFB8 2019-04-17 13:01:20 22.3 23 25.5
002EEFB8 2019-04-17 12:27:10 22.1 23 25.5
002EEFB8 2019-04-17 11:53:00 22.1 22 25.3
002EEFB8 2019-04-17 11:18:51 22.1 22 25.3
002EEFB8 2019-04-17 10:44:40 21.9 21 25.3
002EEFB8 2019-04-17 10:10:30 21.9 21 25.3
002EEFB8 2019-04-17 09:36:19 21.9 21 25.3
002EEFB8 2019-04-17 09:02:09 21.9 21 25.5
002EEFB8 2019-04-17 08:27:59 21.9 21 25.4
002EEFB8 2019-04-17 07:53:51 21.9 20 25.4
002EEFB8 2019-04-17 07:19:42 21.9 19 25.3
002EEFB8 2019-04-17 06:45:31 21.9 19 25.4
002EEFB8 2019-04-17 06:11:21 21.9 19 25.5
002EEFB8 2019-04-17 05:37:09 21.9 19 25.5
002EEFB8 2019-04-17 05:02:59 21.9 19 25.5
002EEFB8 2019-04-17 04:28:47 21.9 19 25.4
002EEFB8 2019-04-17 03:54:37 21.9 19 25.4
002EEFB8 2019-04-17 03:20:26 21.9 20 25.3
002EEFB8 2019-04-17 02:46:15 21.9 20 25.1
002EEFB8 2019-04-17 02:12:05 21.9 20 25.1
002EEFB8 2019-04-17 01:37:54 21.9 20 25.2
002EEFB8 2019-04-17 01:03:44 22 20 25.3
002EEFB8 2019-04-17 00:29:33 22 20 25.4
002EEFB8 2019-04-16 23:55:22 22.1 20 25.1
002EEFB8 2019-04-16 23:21:11 22.1 20 25.1
002EEFB8 2019-04-16 22:47:00 22.1 20 25.1
002EEFB8 2019-04-16 22:12:49 22.1 20 25.1
002EEFB8 2019-04-16 21:38:38 22.1 19 25
002EEFB8 2019-04-16 21:04:27 22.1 19 24.9
002EEFB8 2019-04-16 20:30:15 22.2 19 24.9
002EEFB8 2019-04-16 19:56:03 22.3 19 24.9
002EEFB8 2019-04-16 19:21:53 22.2 19 25
002EEFB8 2019-04-16 18:47:41 22.3 19 24.9
002EEFB8 2019-04-16 18:13:31 22.3 18 24.9
002EEFB8 2019-04-16 17:39:20 22.4 18 25
002EEFB8 2019-04-16 17:05:11 22.5 18 25
002EEFB8 2019-04-16 16:31:01 22.5 19 24.9
002EEFB8 2019-04-16 15:56:50 22.5 18 24.9
002EEFB8 2019-04-16 15:22:40 22.3 19 24.8
002EEFB8 2019-04-16 14:48:29 22.3 19 24.8
002EEFB8 2019-04-16 14:14:19 22.3 18 24.8
002EEFB8 2019-04-16 13:40:10 22.2 18 24.9
002EEFB8 2019-04-16 13:05:59 22.1 18 24.8
002EEFB8 2019-04-16 12:31:49 22.1 18 24.9
002EEFB8 2019-04-16 11:57:39 22.1 18 24.9
002EEFB8 2019-04-16 11:23:28 21.9 18 24.9
002EEFB8 2019-04-16 10:49:17 21.9 18 24.8
002EEFB8 2019-04-16 10:15:05 21.9 18 24.8
002EEFB8 2019-04-16 09:40:54 21.9 18 24.7
002EEFB8 2019-04-16 09:06:42 21.9 18 24.7
002EEFB8 2019-04-16 08:32:30 21.9 18 24.7
002EEFB8 2019-04-16 07:58:18 21.9 17 24.7
002EEFB8 2019-04-16 07:24:07 21.8 17 24.6
002EEFB8 2019-04-16 06:49:55 21.9 17 24.6
002EEFB8 2019-04-16 06:15:44 21.9 17 24.6
002EEFB8 2019-04-16 05:41:32 21.9 17 24.7
002EEFB8 2019-04-16 05:07:20 21.9 17 24.5
002EEFB8 2019-04-16 04:33:08 21.9 17 24.4
002EEFB8 2019-04-16 03:58:56 21.9 17 24.3
002EEFB8 2019-04-16 03:24:44 21.9 17 24.3
002EEFB8 2019-04-16 02:50:33 21.9 17 24.3
002EEFB8 2019-04-16 02:16:22 21.9 17 24.5
002EEFB8 2019-04-16 01:42:11 21.9 17 24.4
002EEFB8 2019-04-16 01:08:01 21.9 17 24.3
002EEFB8 2019-04-16 00:33:50 21.9 17 24.3
002EEFB8 2019-04-15 23:59:39 21.9 17 24.3
002EEFB8 2019-04-15 23:25:28 21.9 17 24.4
002EEFB8 2019-04-15 22:51:17 22.1 17 24.5
002EEFB8 2019-04-15 22:17:06 22.1 17 24.8
002EEFB8 2019-04-15 21:42:53 22.1 16 24.8
002EEFB8 2019-04-15 21:08:42 22.1 16 24.7
002EEFB8 2019-04-15 20:34:31 22.2 16 24.9
002EEFB8 2019-04-15 20:00:18 22.1 16 24.8
002EEFB8 2019-04-15 19:26:06 22.1 16 24.7
002EEFB8 2019-04-15 18:51:54 22.2 15 24.7
002EEFB8 2019-04-15 18:17:42 22.3 15 24.7
002EEFB8 2019-04-15 17:43:30 22.3 15 24.8
002EEFB8 2019-04-15 17:09:17 22.4 15 25
002EEFB8 2019-04-15 16:35:06 22.4 15 25
002EEFB8 2019-04-15 16:00:54 22.4 15 25
002EEFB8 2019-04-15 15:26:41 22.3 16 25
002EEFB8 2019-04-15 14:52:31 22.3 15 25.1
002EEFB8 2019-04-15 14:18:18 22.3 16 25.2
002EEFB8 2019-04-15 13:44:05 22.2 16 25.3
002EEFB8 2019-04-15 13:09:51 22.1 16 25.3
002EEFB8 2019-04-15 12:35:38 22.1 16 25.3
002EEFB8 2019-04-15 12:01:27 21.9 16 25.2
002EEFB8 2019-04-15 11:27:15 21.9 16 25.3
002EEFB8 2019-04-15 10:53:04 21.9 16 25.4
002EEFB8 2019-04-15 10:18:52 21.9 17 25.8
002EEFB8 2019-04-15 09:44:43 21.7 17 25.8
002EEFB8 2019-04-15 09:10:32 21.7 17 25.8
002EEFB8 2019-04-15 08:36:21 21.7 17 25.7
002EEFB8 2019-04-15 08:02:09 21.7 17 25.4
002EEFB8 2019-04-15 07:27:57 21.7 17 25.5
002EEFB8 2019-04-15 06:53:44 21.6 17 25.4
002EEFB8 2019-04-15 06:19:32 21.5 17 25.3
002EEFB8 2019-04-15 05:45:19 21.5 17 25.4
002EEFB8 2019-04-15 05:11:07 21.5 17 25.4
002EEFB8 2019-04-15 04:36:56 21.5 17 25.3
002EEFB8 2019-04-15 04:02:45 21.5 18 25.3
002EEFB8 2019-04-15 03:28:34 21.6 18 25.4
002EEFB8 2019-04-15 02:54:23 21.5 18 25.4
002EEFB8 2019-04-15 02:20:11 21.5 18 25.4
002EEFB8 2019-04-15 01:45:58 21.5 18 25.4
002EEFB8 2019-04-15 01:11:47 21.5 18 25.4
002EEFB8 2019-04-15 00:37:35 21.6 18 25.3
002EEFB8 2019-04-15 00:03:23 21.5 18 25.2
002EEFB8 2019-04-14 23:29:11 21.6 18 25.2
002EEFB8 2019-04-14 22:54:59 21.7 18 25.4
002EEFB8 2019-04-14 22:20:46 21.7 18 25.4
002EEFB8 2019-04-14 21:46:34 21.7 18 25.5
002EEFB8 2019-04-14 21:12:23 21.7 18 25.4
002EEFB8 2019-04-14 20:38:11 21.7 18 25.3
002EEFB8 2019-04-14 20:03:59 21.7 18 25
002EEFB8 2019-04-14 19:29:48 21.7 18 25.1
002EEFB8 2019-04-14 18:55:38 21.7 18 25.4
002EEFB8 2019-04-14 18:21:27 21.7 18 25.4
002EEFB8 2019-04-14 17:47:16 21.7 18 25.4
002EEFB8 2019-04-14 17:13:05 21.7 18 25.3
002EEFB8 2019-04-14 16:38:53 21.7 18 25.3
002EEFB8 2019-04-14 16:04:40 21.7 18 25.4
002EEFB8 2019-04-14 15:30:29 21.7 18 25.4
002EEFB8 2019-04-14 14:56:17 21.7 18 25.5
002EEFB8 2019-04-14 14:22:07 21.7 18 25.6
002EEFB8 2019-04-14 13:47:55 21.7 18 25.7
002EEFB8 2019-04-14 13:13:43 21.7 19 25.5
002EEFB8 2019-04-14 12:39:31 21.7 19 25.5
002EEFB8 2019-04-14 12:05:18 21.7 19 25.5
002EEFB8 2019-04-14 11:31:06 21.7 19 25.5
002EEFB8 2019-04-14 10:56:54 21.7 19 25.5
002EEFB8 2019-04-14 10:22:41 21.7 19 25.6
002EEFB8 2019-04-14 09:48:29 21.7 19 25.6
002EEFB8 2019-04-14 09:14:17 21.7 18 25.8
002EEFB8 2019-04-14 08:40:04 21.7 18 25.9
002EEFB8 2019-04-14 08:05:53 21.7 18 25.8
002EEFB8 2019-04-14 07:31:41 21.7 18 25.8
002EEFB8 2019-04-14 06:57:29 21.7 18 25.8
002EEFB8 2019-04-14 06:23:18 21.7 18 25.9
002EEFB8 2019-04-14 05:49:05 21.7 18 25.9
002EEFB8 2019-04-14 05:14:53 21.7 18 25.8
002EEFB8 2019-04-14 04:40:41 21.7 18 25.4
002EEFB8 2019-04-14 04:06:29 21.7 18 25.4
002EEFB8 2019-04-14 03:32:17 21.7 18 25.4
002EEFB8 2019-04-14 02:58:05 21.7 18 25.5
002EEFB8 2019-04-14 02:23:53 21.7 18 25.6
002EEFB8 2019-04-14 01:49:41 21.7 18 25.5
002EEFB8 2019-04-14 01:15:29 21.7 18 25.4
002EEFB8 2019-04-14 00:41:16 21.7 18 25.3
002EEFB8 2019-04-14 00:07:04 21.7 18 25.5
002EEFB8 2019-04-13 23:32:52 21.8 18 25.3
002EEFB8 2019-04-13 22:58:40 21.8 18 25.4
002EEFB8 2019-04-13 22:24:28 21.9 18 25.5
002EEFB8 2019-04-13 21:50:17 21.8 18 25.6
002EEFB8 2019-04-13 21:16:06 21.9 18 25.5
002EEFB8 2019-04-13 20:41:54 21.9 18 25.6
002EEFB8 2019-04-13 20:07:41 21.9 18 25.6
002EEFB8 2019-04-13 19:33:29 21.9 18 25.5
002EEFB8 2019-04-13 18:59:17 21.9 18 25.6
002EEFB8 2019-04-13 18:25:05 21.9 18 25.1
002EEFB8 2019-04-13 17:50:52 21.9 18 25.1
002EEFB8 2019-04-13 17:16:40 21.9 18 25.1
002EEFB8 2019-04-13 16:42:27 21.9 18 25.2
002EEFB8 2019-04-13 16:08:15 22 18 25.1
002EEFB8 2019-04-13 15:34:02 22 18 25.1
002EEFB8 2019-04-13 14:59:50 22.1 18 25
002EEFB8 2019-04-13 14:25:39 22.1 18 25
002EEFB8 2019-04-13 13:51:27 22.1 18 25.1
002EEFB8 2019-04-13 13:17:16 22.1 18 25.2
002EEFB8 2019-04-13 12:43:03 22.1 18 25.1
002EEFB8 2019-04-13 12:08:51 22.1 18 25
002EEFB8 2019-04-13 11:34:38 22.1 18 25.1
002EEFB8 2019-04-13 11:00:25 22.1 18 25.2
002EEFB8 2019-04-13 10:26:13 22.1 18 25.3
002EEFB8 2019-04-13 09:52:01 22.1 18 25.1
002EEFB8 2019-04-13 09:17:51 22.1 18 25.2
002EEFB8 2019-04-13 08:43:39 22.1 18 25.2
002EEFB8 2019-04-13 08:09:25 22.1 18 25.1
002EEFB8 2019-04-13 07:35:12 22.1 18 25.1
002EEFB8 2019-04-13 07:00:59 22.1 18 25.1
002EEFB8 2019-04-13 06:26:47 22.1 18 24.9
002EEFB8 2019-04-13 05:52:35 22.1 18 24.9
002EEFB8 2019-04-13 05:18:23 22.1 18 25.3
002EEFB8 2019-04-13 04:44:12 22.1 18 25.5
002EEFB8 2019-04-13 04:09:59 22.1 18 25.9
002EEFB8 2019-04-13 03:35:48 22.1 19 26
002EEFB8 2019-04-13 03:01:36 22.1 19 25.8
002EEFB8 2019-04-13 02:27:24 22.2 19 25.8
002EEFB8 2019-04-13 01:53:12 22.2 19 25.9
002EEFB8 2019-04-13 01:19:00 22.3 19 25.9
002EEFB8 2019-04-13 00:44:47 22.3 19 26
002EEFB8 2019-04-13 00:10:36 22.3 19 26.1
002EEFB8 2019-04-12 23:36:23 22.3 19 26.2
002EEFB8 2019-04-12 23:02:11 22.3 20 26.1
002EEFB8 2019-04-12 22:28:02 22.5 20 26.2
002EEFB8 2019-04-12 21:53:49 22.5 20 26.3
002EEFB8 2019-04-12 21:19:36 22.5 20 26.3
002EEFB8 2019-04-12 20:45:24 22.5 19 26.3
002EEFB8 2019-04-12 20:11:12 22.5 19 26.4
002EEFB8 2019-04-12 19:37:00 22.5 19 26.5
002EEFB8 2019-04-12 19:02:46 22.5 19 26.6
002EEFB8 2019-04-12 18:28:33 22.7 18 26.8
002EEFB8 2019-04-12 17:54:21 22.7 17 26.9
002EEFB8 2019-04-12 17:20:06 22.7 18 27.1
002EEFB8 2019-04-12 16:45:53 22.7 18 27.3
002EEFB8 2019-04-12 16:11:40 22.6 18 27.8
002EEFB8 2019-04-12 15:37:27 22.5 19 28.3
002EEFB8 2019-04-12 15:03:14 22.3 19 27.8
002EEFB8 2019-04-12 14:29:02 22.1 20 26.6
002EEFB8 2019-04-12 13:54:50 21.6 20 22.8
002EEFB8 2019-04-12 13:20:37 20.9 23 6.9